User: anonymous   Login
Location: Seminole
(32.7190°N, 102.6440°W)
Time: 22:37:16
(UTC-05:00)
Language:

Meteor 2-10 - Orbit

View from above orbital plane
View from above orbital plane
View from above satellite
View from above satellite

Ground track
Ground track

The orbit data is extracted from the following two-line orbital elements,

1 14452U 83109A   15182.79117476  .00000093  00000-0  32335-4 0  9998
2 14452 081.1629 079.3811 0089895 299.4806 059.7428 14.26347731646897
Epoch (UTC): 01 July 2015 18:59:17
Eccentricity: 0.0089895
inclination: 81.1629°
perigee height: 739 km
apogee height: 868 km
right ascension of ascending node: 79.3811°
argument of perigee: 299.4806°
revolutions per day: 14.26347731
mean anomaly at epoch: 59.7428°
orbit number at epoch: 64689

The dashed part of the orbit path shows where the satellite is in the earth's shadow,  

DLR